TimeEDT,TemperatureF,Dew PointF,Humidity,Sea Level PressureIn,VisibilityMPH,Wind Direction,Wind SpeedMPH,Gust SpeedMPH,PrecipitationIn,Events,Conditions,WindDirDegrees,DateUTC
12:00 AM,41.0,41.0,100,29.89,15.0,SW,4.6,-,N/A,Rain,Light Rain,230,2012-10-12 04:00:00
1:00 AM,42.8,41.0,93,29.88,15.0,WSW,9.2,-,N/A,Rain,Light Rain,240,2012-10-12 05:00:00
2:00 AM,44.6,41.0,87,29.88,25.0,WSW,11.5,17.3,N/A,Rain,Light Rain,240,2012-10-12 06:00:00
2:49 AM,42.8,39.2,87,29.88,25.0,WSW,13.8,21.9,N/A,,Overcast,250,2012-10-12 06:49:00
3:00 AM,42.8,37.4,81,29.88,25.0,West,11.5,23.0,N/A,,Overcast,260,2012-10-12 07:00:00
4:00 AM,41.0,33.8,76,29.92,25.0,WSW,11.5,24.2,N/A,,Overcast,250,2012-10-12 08:00:00
5:00 AM,39.2,32.0,75,29.96,25.0,West,11.5,18.4,N/A,,Mostly Cloudy,270,2012-10-12 09:00:00
6:00 AM,37.4,32.0,81,30.01,25.0,West,5.8,-,N/A,,Scattered Clouds,280,2012-10-12 10:00:00
7:00 AM,35.6,30.2,81,30.07,45.0,West,5.8,-,N/A,,Partly Cloudy,280,2012-10-12 11:00:00
8:00 AM,35.6,30.2,81,30.10,45.0,West,5.8,-,N/A,,Partly Cloudy,270,2012-10-12 12:00:00
9:00 AM,39.2,28.4,65,30.14,45.0,NNW,10.4,18.4,N/A,,Scattered Clouds,330,2012-10-12 13:00:00
10:00 AM,41.0,28.4,61,30.18,45.0,NNW,13.8,21.9,N/A,,Scattered Clouds,330,2012-10-12 14:00:00
11:00 AM,41.0,24.8,53,30.17,45.0,NNW,13.8,20.7,N/A,,Mostly Cloudy,340,2012-10-12 15:00:00
12:00 PM,41.0,23.0,49,30.20,45.0,NW,12.7,25.3,N/A,,Mostly Cloudy,320,2012-10-12 16:00:00
1:00 PM,41.0,24.8,53,30.20,45.0,NNW,13.8,24.2,N/A,,Mostly Cloudy,330,2012-10-12 17:00:00
2:00 PM,42.8,23.0,46,30.22,45.0,NW,11.5,18.4,N/A,,Mostly Cloudy,320,2012-10-12 18:00:00
3:00 PM,42.8,23.0,46,30.24,45.0,WNW,9.2,18.4,N/A,,Mostly Cloudy,290,2012-10-12 19:00:00
4:00 PM,42.8,23.0,46,30.27,45.0,NW,10.4,17.3,N/A,,Mostly Cloudy,320,2012-10-12 20:00:00
5:00 PM,42.8,21.2,42,30.28,45.0,NW,11.5,21.9,N/A,,Mostly Cloudy,310,2012-10-12 21:00:00
6:00 PM,39.2,26.6,61,30.31,45.0,WNW,5.8,-,N/A,,Partly Cloudy,300,2012-10-12 22:00:00
8:00 PM,35.6,24.8,65,30.35,25.0,WNW,3.5,-,N/A,,Partly Cloudy,290,2012-10-13 00:00:00
9:00 PM,35.6,24.8,65,30.37,25.0,WNW,5.8,-,N/A,,Partly Cloudy,300,2012-10-13 01:00:00
10:00 PM,32.0,24.8,75,30.39,25.0,WSW,3.5,-,N/A,,Clear,250,2012-10-13 02:00:00
11:00 PM,32.0,23.0,69,30.40,25.0,WSW,3.5,-,N/A,,Clear,250,2012-10-13 03:00:00